Regional Weather Roundup
Issued by NWS

Home | Current Version | Previous Version | Graphics & Text | Print | Product List | Glossary On
Versions: 1 2 3 4 5 6 7 8 9 10 11 12 13 14 15 16 17 18 19 20 21 22 23 24 25 26 27 28 29 30 31 32 33 34 35 36 37 38 39 40 41 42 43 44 45 46 47 48 49 50
000
ASUS43 KOAX 191902
RWRNE

WEATHER ROUNDUP FOR NEBRASKA
NATIONAL WEATHER SERVICE OMAHA NE
200 PM CDT TUE AUG 19 2014

NOTES: SATELLITE DATA IS BEING USED TO AUGMENT CLOUD COVER ABOVE
       12000 FEET.
       "FAIR" INDICATES FEW OR NO CLOUDS BELOW 12,000 FEET WITH NO
       SIGNIFICANT WEATHER AND/OR OBSTRUCTIONS TO VISIBILITY.

  * THESE STATIONS DO NOT REPORT WEATHER SUCH AS RAIN...SNOW OR FOG.

NEZ001>004-019>022-054>056-192000-
NEBRASKA PANHANDLE

CITY           SKY/WX    TMP DP  RH WIND       PRES   REMARKS
SCOTTSBLUFF    MOSUNNY   87  61  41 E10       29.84F
ALLIANCE       SUNNY     92  51  24 S15G22    29.85F
CHADRON        SUNNY     93  53  25 S10       29.78F HX  90
KIMBALL        SUNNY     85  49  28 S10G16    29.91F
SIDNEY         SUNNY     89  52  28 S14G20    29.90F
$$

NEZ057>060-069>072-079>082-192000-
SOUTHWEST NEBRASKA

CITY           SKY/WX    TMP DP  RH WIND       PRES   REMARKS
NORTH PLATTE   MOSUNNY   87  61  41 E13       29.83F
IMPERIAL       SUNNY     89  56  32 E13       29.85F
LEXINGTON      SUNNY     85  67  55 SE8       29.84F
MCCOOK         SUNNY     90  59  35 SE12      29.83F
OGALLALA       PTSUNNY   86  59  39 SE9       29.85F
$$

NEZ005>010-023>029-035>040-094-192000-
NORTH CENTRAL NEBRASKA

CITY           SKY/WX    TMP DP  RH WIND       PRES   REMARKS
VALENTINE      SUNNY     88  59  37 SE15      29.83F
AINSWORTH      SUNNY     84  60  44 SE9       29.85S
BROKEN BOW     SUNNY     86  66  51 SE9       29.84F
O`NEILL        SUNNY     84  60  43 E5        29.85F
ORD            SUNNY     84  64  50 E13       29.83F
THEDFORD       SUNNY     88  63  43 SE9G16    29.85F
$$

NEZ041-046>049-061>064-073>077-083>087-192000-
SOUTH CENTRAL NEBRASKA

CITY           SKY/WX    TMP DP  RH WIND       PRES   REMARKS
GRAND ISLAND   SUNNY     85  66  53 S9        29.85F
AURORA         SUNNY     85  67  54 SE8       29.84F
HASTINGS       SUNNY     86  62  44 VRB3      29.84F
HEBRON         MOSUNNY   88  63  42 S3        29.83S
HOLDREGE       SUNNY     84  63  48 SE5       29.85F
KEARNEY *      SUNNY     84  64  51 E8        29.85F
$$

NEZ011>018-030>034-042>045-192000-
NORTHEAST NEBRASKA

CITY           SKY/WX    TMP DP  RH WIND       PRES   REMARKS
NORFOLK        SUNNY     85  61  44 VRB3      29.84F
ALBION         SUNNY     83  62  49 SE6       29.85F
BLAIR          SUNNY     84  61  45 NW5       29.84S
COLUMBUS *     SUNNY     90  66  45 CALM      29.84F HX  92
FREMONT        SUNNY     86  58  37 SW3       29.84S
TEKAMAH        SUNNY     85  63  47 VRB3      29.82F
WAYNE          SUNNY     82  64  53 N3        29.84F
$$

NEZ050>053-065>068-078-088>093-192000-
SOUTHEAST NEBRASKA

CITY           SKY/WX    TMP DP  RH WIND       PRES   REMARKS
LINCOLN        SUNNY     90  60  36 N6        29.83F
OMAHA EPPLEY   MOSUNNY   88  59  37 N8        29.82F
BEATRICE       SUNNY     87  68  52 E3        29.83S HX  90
FALLS CITY     SUNNY     90  68  48 VRB5      29.82S HX  94
NEBRASKA CITY  SUNNY     85  64  48 E6        29.83S
PLATTSMOUTH    SUNNY     87  57  36 CALM      29.83F
$$

NEZ044-045-051>053-067-192000-
OMAHA AREA

CITY           SKY/WX    TMP DP  RH WIND       PRES   REMARKS
OMAHA EPPLEY   MOSUNNY   88  59  37 N8        29.82F
BLAIR          SUNNY     84  61  45 NW5       29.84S
FREMONT        SUNNY     86  58  37 SW3       29.84S
MILLARD        SUNNY     87  61  40 W5        29.82F
OFFUTT AFB     SUNNY     87  64  45 VRB3      29.82F
PLATTSMOUTH    SUNNY     87  57  36 CALM      29.83F
WAHOO          FAIR      85  60  42 CALM      29.83F
$$



USA.gov is the U.S. government's official web portal to all federal, state and local government web resources and services.